SCOUT A DEB, 3214

Orbit data source: Space-Track

SCOUT A DEB, 3214 is space debris in LEO originally from a launch on Sat, 02 Mar 1968 UTC launched from the Air Force Western Test Range (AFWTR). Debris objects in space refer to the collection of defunct objects orbiting the Earth. Examples of debris include non-operational satellites, rocket bodies, and fragments generated from explosions, collisions, or faulty payload assembly.

Loading next visibility...
Identifier
3214, 1968-012D
Orbit
LEO
Country
Flag of USUS
Related business
Manufacturer
Unknown
Mission
Spacecraft
Bus & Motor
Unknown
Mass
Unknown
Launch date (UTC)
1968-03-02 (58 years ago)
Launch vehicle
Unknown
Launch site
Air Force Western Test Range (AFWTR)
Object type
Payload
Rocket body
Debris
Shape & HBR
Unknown
Radar Cross Section
Small (<0.1 m²)

Expand to show TLE details & history
Last TLE update: 2 days ago

TLE from 2 days ago
0 SCOUT A DEB
1 03214U 68012D   25259.53951698  .00000135  00000-0  25197-3 0  9992
2 03214  89.8276 108.3232 0183792 301.3394 118.6779 13.29189758548182
Epoch: 2025-09-16T12:56Z
TLE epoch observation values (Epoch: 2025-09-16T12:56:54.267Z)
Latitude
61.92932°
Longitude
-81.30963°
Altitude
1,228.845 km
Speed
7.213 km/s
True Right ascension
07h 14m 34s
True Declination
61° 47' 43"
Sunlit
Object was in daylight at epoch
Visualization orbit readout
Latitude
Unknown
Longitude
Unknown
Altitude
Unknown
Speed
Unknown
Apparent Right ascension
Unknown
Apparent Declination
Unknown
Sunlit
N/A
Visualization observer readout
Local Sidereal Time
00:47:24
Azimuth
Unknown
Elevation
Unknown
Doppler factor
Unknown
Orbital elements
Apogee altitude
1,285.204 km
Perigee altitude
1,008.596 km
Semi-major axis
7,525.037 km
Eccentricity
0.01838
Inclination
89.8276°
RAAN
108.3232°
Arg. of periapsis
301.3394°
True anomaly
120.50518°
Mean anomaly
118.6779°
Eccentric anomaly
119.59358°
Mean motion
3.32491 °/min
Orbital period
108.27 mins
BSTAR
0.00025197
Loading maneuver chart data...
Computing Atmospheric mass density...
Loading historical data...
Loading historical data...
Loading historical data...
Loading historical data...
Loading historical data...
Loading historical data...
Loading historical data...

Documentation

Showing up to 5 results
|